DELTA 1 DEB, 7013

Orbit data source: Space-Track

DELTA 1 DEB, 7013 is space debris in SSO originally from a launch on Tue, 06 Nov 1973 UTC launched from the Air Force Western Test Range (AFWTR). Debris objects in space refer to the collection of defunct objects orbiting the Earth. Examples of debris include non-operational satellites, rocket bodies, and fragments generated from explosions, collisions, or faulty payload assembly.

Loading next visibility...
Identifier
7013, 1973-086D
Orbit
SSO
Country
Flag of USUS
Related business
Manufacturer
Unknown
Mission
Spacecraft
Bus & Motor
Unknown
Mass
Unknown
Launch date (UTC)
1973-11-06 (52 years ago)
Launch vehicle
Unknown
Launch site
Air Force Western Test Range (AFWTR)
Object type
Payload
Rocket body
Debris
Shape & HBR
Unknown shape, 0.8 m
Radar Cross Section
Medium (>0.1 m² and <1 m²)

Expand to show TLE details & history
Last TLE update: 8 hours ago

TLE from 8 hours ago
0 DELTA 1 DEB
1  7013U 73086D   25295.18660932  .00000025  00000-0  45269-3 0  9999
2  7013 102.0202 299.7406 0069095 196.1533 254.8881 12.51849456372614
Epoch: 2025-10-22T04:28Z
TLE epoch observation values (Epoch: 2025-10-22T04:28:43.045Z)
Latitude
78.0338°
Longitude
110.35719°
Altitude
1,484.255 km
Speed
7.121 km/s
True Right ascension
13h 53m 36s
True Declination
77° 58' 13"
Sunlit
Object was in daylight at epoch
Visualization orbit readout
Latitude
Unknown
Longitude
Unknown
Altitude
Unknown
Speed
Unknown
Apparent Right ascension
Unknown
Apparent Declination
Unknown
Sunlit
N/A
Visualization observer readout
Local Sidereal Time
07:41:46
Azimuth
Unknown
Elevation
Unknown
Doppler factor
Unknown
Orbital elements
Apogee altitude
1,508.447 km
Perigee altitude
1,400.211 km
Semi-major axis
7,832.466 km
Eccentricity
0.00691
Inclination
102.0202°
RAAN
299.7406°
Arg. of periapsis
196.1533°
True anomaly
254.12545°
Mean anomaly
254.8881°
Eccentric anomaly
254.5066°
Mean motion
3.13109 °/min
Orbital period
114.98 mins
BSTAR
0.00045269
Loading maneuver chart data...
Computing Atmospheric mass density...
Loading historical data...
Loading historical data...
Loading historical data...
Loading historical data...
Loading historical data...
Loading historical data...
Loading historical data...

Documentation

Showing up to 5 results
|